Dewpoint
27 27 27 25 24 25 24 23 22 22 22 23 24 25 25 29 34 36 38 38 34 30 28 25 22 20 18 18 17 14 14 14 13 14 14 14 15 16 17 17 17 18 18 18
26 27 28 25 26 25 25 24 24 23 23 24 29 26 25 27 33 35 37 36 31 29 26 22 19 17 16 16 15 14 13 14 14 14 14 15 16 16 16 17 17 17 17 18
25 28 26 26 27 27 26 25 24 23 24 25 25 26 26 26 32 34 36 33 30 27 23 19 17 16 15 14 15 13 14 13 14 14 15 16 16 16 17 16 17 17 17 18
28 29 23 27 27 27 26 26 26 25 25 26 26 27 28 27 28 33 34 31 28 24 19 17 16 16 14 14 14 15 14 13 14 15 15 16 16 16 16 16 17 17 18 19
28 28 29 29 27 27 27 27 28 26 27 26 27 27 29 28 28 31 32 29 25 19 16 14 13 12 12 14 14 14 14 13 14 15 15 16 16 16 16 17 17 18 18 18
30 25 23 27 27 28 30 25 29 30 29 28 27 25 27 28 29 30 28 23 18 14 12 11 10 11 11 12 13 13 13 14 14 15 15 15 16 16 17 18 17 18 19 19
28 26 27 30 28 30 26 24 27 29 30 27 27 26 25 26 26 24 20 16 14 12 9 8 9 10 11 12 12 13 14 14 15 15 15 15 15 17 17 17 18 19 19 19
29 28 24 28 28 25 27 25 28 29 29 24 22 20 18 17 16 14 14 13 10 8 8 8 10 10 11 11 13 14 14 14 14 15 15 15 17 17 18 18 16 18 19 19
26 29 32 28 29 30 30 26 26 28 24 22 19 16 15 14 14 13 10 9 9 8 8 8 10 10 10 11 13 14 15 15 15 15 16 18 18 18 19 19 19 17 19 19
29 28 28 28 30 27 29 27 28 27 22 20 17 15 13 13 12 9 9 8 8 8 8 8 9 10 12 12 14 15 16 17 17 17 19 18 20 20 18 18 19 20 21 20
24 27 29 30 30 29 29 25 26 24 22 18 16 14 13 12 10 9 8 8 8 8 8 10 12 11 11 13 15 15 16 17 19 19 18 19 20 18 19 20 22 23 24 24
22 24 25 27 29 28 26 27 24 21 19 18 16 15 13 11 9 8 8 8 8 11 11 11 12 12 13 15 16 17 17 17 19 19 17 18 14 14 20 21 23 23 23 23
18 20 24 26 29 28 26 27 25 23 21 20 20 18 14 9 8 13 8 10 11 11 11 12 12 13 15 15 16 16 17 19 19 20 19 16 16 17 16 19 21 21 23 23
15 18 21 24 23 27 24 25 24 23 23 21 19 14 10 10 12 11 13 11 12 14 14 12 13 14 15 16 16 15 17 19 18 18 16 14 17 18 19 19 17 17 21 22
15 17 20 23 26 22 24 23 21 20 19 18 18 19 17 14 14 15 17 18 17 16 14 13 13 14 16 16 15 15 16 18 18 17 17 17 17 19 19 19 18 18 18 19
15 17 20 21 21 22 22 21 19 19 19 19 18 18 18 17 17 17 17 17 15 13 13 13 14 15 17 17 14 14 16 19 19 17 16 18 19 18 18 18 18 17 17 18
12 13 16 18 17 17 18 19 19 18 17 16 16 17 16 15 15 15 16 16 15 15 14 14 15 16 17 14 16 15 16 15 19 16 15 18 19 19 18 18 17 16 17 20
16 16 18 18 17 15 15 16 16 16 15 16 16 15 15 14 12 13 14 14 14 14 14 15 16 17 16 14 16 14 15 15 16 13 17 18 19 18 18 18 17 16 17 18
16 15 15 15 15 15 14 14 15 16 16 16 15 13 14 14 13 13 13 12 12 12 14 15 17 15 15 16 14 14 14 13 13 13 17 17 17 16 16 17 17 15 16 17
14 15 15 14 15 14 14 15 15 14 15 14 14 12 12 13 13 11 11 11 12 13 16 14 13 13 14 15 15 13 12 11 10 12 16 13 14 13 13 15 15 15 15 16
12 12 12 13 13 14 14 15 14 13 14 14 12 11 12 13 12 10 9 10 12 16 15 14 13 13 14 14 12 10 9 8 8 8 9 10 10 11 11 12 12 14 13 15
11 10 10 11 11 11 13 14 13 13 12 12 12 12 11 10 10 12 12 12 14 17 15 15 14 15 15 14 8 6 5 4 2 3 5 6 8 8 9 10 11 11 12 14
11 11 11 10 10 9 10 10 11 12 11 11 11 10 10 10 11 10 9 13 14 16 16 17 15 15 15 7 6 2 1 1 -0 -1 -1 1 4 7 7 8 10 9 12 14
11 11 10 10 9 8 7 8 9 9 8 8 8 10 10 8 8 11 14 14 16 15 14 14 14 13 11 1 0 -3 -4 -4 -3 -6 -5 8 -2 -0 2 5 6 7 12 12
11 9 9 10 9 9 8 9 10 10 9 8 8 8 8 9 7 5 7 10 13 10 8 15 12 10 1 -3 -6 -7 -8 -8 -7 -8 -9 -10 -9 -5 -2 1 2 9 9 10
10 9 9 8 8 10 10 10 9 10 9 8 8 7 6 7 7 4 3 7 4 8 1 -1 -3 -3 -5 -7 -7 -8 -9 -9 -8 -10 -8 -12 -11 -7 -5 -3 -1 2 5 8
14 14 11 10 11 12 12 12 8 7 8 6 5 5 4 4 5 4 7 2 1 -2 -2 -3 -3 -1 -6 -8 -8 -8 -6 -7 0 -7 -11 -13 -13 -11 -7 -5 -4 -0 4 7
Lifted_Index
2 1 1 1 1 1 2 3 3 3 3 3 3 3 3 3 4 4 5 5 5 6 6 6 6 7 7 7 8 9 10 11 13 15 18 19 20 20 19 19 19 20 19 19
1 1 1 1 1 2 2 3 3 3 3 3 3 3 3 3 4 4 4 4 5 5 6 6 7 7 7 8 8 9 10 12 14 16 18 19 20 19 19 19 19 19 19 19
1 1 1 2 2 2 3 3 3 3 3 3 3 3 3 3 3 4 4 4 5 5 6 7 7 7 8 8 9 10 11 13 15 17 19 19 19 19 19 19 19 19 19 19
1 1 1 2 3 3 3 3 3 3 3 3 3 3 3 3 3 3 4 4 5 6 7 8 8 8 8 9 10 11 12 14 16 18 19 19 19 19 19 19 19 19 19 19
1 1 1 2 2 2 2 2 2 3 3 2 2 3 3 3 3 4 5 5 6 7 8 9 9 9 9 10 10 12 13 16 18 19 19 19 19 19 19 19 18 18 18 19
1 1 1 1 2 1 1 2 2 2 2 2 2 3 3 3 4 5 5 6 7 8 9 9 9 9 9 10 11 13 15 17 18 19 19 19 19 19 19 19 18 18 18 18
1 1 1 1 1 1 1 1 1 1 1 2 3 3 3 3 4 5 6 6 7 8 9 10 10 10 10 11 13 15 17 19 19 19 19 19 19 19 19 18 18 18 18 18
1 1 1 1 1 0 0 0 0 1 1 2 3 3 4 4 4 5 6 7 8 8 9 11 12 12 12 13 15 17 19 19 19 19 19 19 19 19 19 18 18 17 17 17
2 2 1 1 1 1 0 0 0 1 1 2 3 3 4 4 5 5 6 7 8 9 10 11 12 13 13 15 17 18 19 19 19 19 19 19 19 19 18 18 17 17 17 17
4 3 3 2 2 2 1 1 1 2 2 2 3 3 4 4 5 5 6 7 8 9 10 11 13 14 15 17 18 19 19 19 19 19 19 19 19 18 18 18 17 17 17 17
5 5 4 4 3 3 2 2 2 2 2 3 3 3 3 4 4 5 6 8 9 10 11 12 13 15 17 18 19 19 19 19 19 19 19 18 18 18 18 18 18 18 18 18
5 5 5 5 4 4 4 3 3 3 3 3 4 3 3 3 4 6 7 9 11 12 13 13 15 16 18 19 19 19 19 19 19 18 18 18 18 18 18 18 19 19 19 19
5 5 5 5 5 5 5 4 4 4 4 4 4 4 3 4 5 7 9 11 13 14 14 15 16 18 19 19 20 19 19 19 19 18 18 17 17 17 17 17 18 18 17 17
7 6 5 5 6 6 6 6 5 5 5 4 4 4 4 5 6 9 11 13 14 15 15 17 17 18 19 20 20 19 19 19 18 18 18 17 17 17 17 16 16 16 15 15
7 7 6 6 6 7 7 6 5 5 5 5 5 5 6 7 8 11 13 14 15 15 16 18 18 19 20 20 20 19 19 19 18 18 18 18 17 17 17 16 16 15 14 14
6 6 6 6 6 7 7 7 6 7 7 7 7 8 9 10 12 13 15 15 15 16 17 18 19 20 20 20 19 19 19 18 18 18 18 18 18 17 17 16 16 15 14 13
7 7 7 7 7 7 8 9 9 9 10 11 11 12 13 14 14 15 16 17 17 18 18 19 20 20 20 19 19 19 18 18 18 18 18 18 17 17 17 16 15 14 14 14
10 10 10 10 9 9 10 12 12 13 13 14 15 15 15 15 15 15 16 17 18 19 19 20 20 20 19 19 19 19 18 18 18 18 18 18 17 17 16 16 15 14 14 14
13 13 13 13 13 13 13 15 15 15 16 16 16 16 16 16 16 16 17 18 19 19 20 20 20 19 19 19 19 19 19 18 18 18 18 17 17 16 16 15 15 14 14 14
14 15 15 15 15 15 16 16 17 17 17 17 17 17 17 17 17 18 18 18 19 20 20 19 19 19 19 19 19 19 19 19 18 18 17 17 16 15 15 14 14 14 14 14
15 15 16 16 16 16 17 17 17 17 18 18 17 17 17 17 18 18 18 19 19 19 19 19 18 18 19 19 19 19 19 18 18 17 16 16 15 15 14 14 14 14 14 14
14 14 15 15 15 16 16 17 17 17 17 17 17 17 17 17 18 18 18 18 18 19 18 18 18 19 19 19 19 19 18 18 17 16 16 15 15 15 14 14 14 14 14 13
13 13 14 14 14 14 15 15 15 16 16 16 16 16 17 17 17 17 17 18 18 18 18 18 19 19 19 19 18 18 17 17 16 15 15 15 15 14 14 14 14 14 13 13
13 13 13 14 14 14 14 14 15 15 16 16 16 17 17 17 17 18 18 18 18 19 19 19 19 19 18 18 17 17 16 16 15 15 15 15 14 14 14 14 14 13 13 13
13 13 14 14 14 14 14 15 15 15 16 16 16 17 17 18 18 18 19 19 18 18 18 18 18 18 17 17 16 16 15 15 15 15 14 14 14 14 14 13 13 13 13 12
13 13 14 14 14 15 15 15 15 15 15 16 16 17 17 18 18 18 18 18 18 17 17 17 17 17 16 16 16 15 15 15 15 14 14 14 14 13 13 13 13 13 12 12
14 14 14 14 14 15 15 15 15 15 15 15 16 16 17 17 18 17 17 17 17 17 16 16 16 16 16 16 15 15 15 15 14 14 14 14 13 13 13 13 13 13 12 12